User: anonymous   Login
Location: *
(46.1006°N, 1.8394°E)
Time: 09:29:16
(UTC+00:00)
Language:

HJ-1C - Orbit

View from above orbital plane
View from above orbital plane
View from above satellite
View from above satellite

Ground track
Ground track

The orbit data is extracted from the following two-line orbital elements,

1 38997U 12064A   19317.86594201  .00001728  00000-0  43070-4 0  9991
2 38997  97.1770 346.8957 0011785  77.1133  27.0819 15.41521065392411
Epoch (UTC): 13 November 2019 20:46:57
Eccentricity: 0.0011785
inclination: 97.1770°
perigee height: 433 km
apogee height: 449 km
right ascension of ascending node: 346.8957°
argument of perigee: 77.1133°
revolutions per day: 15.41521065
mean anomaly at epoch: 27.0819°
orbit number at epoch: 39241

The dashed part of the orbit path shows where the satellite is in the earth's shadow,  

DLR